Location: Rometta
(44.2000°N, 10.0500°E)
Time: 22:20:07
(UTC+00:00)

FengYun 1-2 T - Pass Details

Date: 20 January 2021
Orbit: 846 x 881 km, 98.7° (Epoch: 03 March)

Event Time Altitude Azimuth Distance (km) Brightness Sun altitude
Rises 16:52:21 0° 162° (SSE) 3,416 7.4 -7.2°
Reaches altitude 10° 16:54:42 10° 162° (SSE) 2,489 6.7 -7.6°
Maximum altitude 17:00:14 86° 74° (ENE) 874 4.3 -8.5°
Drops below altitude 10° 17:05:53 10° 347° (NNW) 2,529 6.6 -9.5°
Sets 17:08:17 0° 347° (NNW) 3,476 7.3 -9.9°
